Weather History for KCEY - October, 2013

Change the Weather History Date:

Saturday, October 26, 2013

  Actual Average (KPAH) Record (KPAH)
Temperature  
Mean Temperature 46 °F 56 °F  
Max Temperature 59 °F 68 °F 86 °F (1944)
Min Temperature 32 °F 44 °F 28 °F (1968)
Degree Days  
Heating Degree Days 20 10  
Month to date heating degree days 175  
Since 1 July heating degree days 214  
Cooling Degree Days 0 1  
Month to date cooling degree days 37  
Year to date cooling degree days 1537  
Moisture  
Dew Point 34 °F    
Average Humidity 63    
Maximum Humidity 80    
Minimum Humidity 47    
Precipitation  
Precipitation 0.00 in 0.12 in 1.34 in (1953)
Month to date precipitation 3.35  
Year to date precipitation 39.58  
Snow  
Snow 0.00 in 0.00 in T in (1957)
Month to date snowfall 0.1  
Since 1 July snowfall 0.1  
Since 1 September snowfall 0.1  
Snow Depth -    
Sea Level Pressure  
Sea Level Pressure 30.18 in    
Wind  
Wind Speed 7 mph (SSW)    
Max Wind Speed 16 mph    
Max Gust Speed 24 mph    
Visibility 10 miles    
Events      
T = Trace of Precipitation, MM = Missing Value Source: NWS Daily Summary

Daily Weather History Graph

Daily Weather History Graph

Search for Another Location

Airport or City:

Trip Planner

Search our weather history database for the weather conditions in past years. The results will help you decide how hot, cold, wet, or windy it might be!

Date:

Astronomy

Oct. 26, 2013 Rise Set
Actual Time 7:11 AM CDT 6:02 PM CDT
Civil Twilight 6:44 AM CDT 6:29 PM CDT
Nautical Twilight 6:14 AM CDT 6:59 PM CDT
Astronomical Twilight 5:44 AM CDT 7:29 PM CDT
Moon No Moon Rise 1:26 PM CDT (10/26)
Length of Visible Light 11h 44m
Length of Day
10h 51m
Waning Gibbous, 53% of the Moon is Illuminated
Oct 26
Waning Gibbous
Oct 26
Last Quarter
Nov 3
New
Nov 9
First Quarter
Nov 17
Full

Hourly Weather History & Observations

Time (CDT) Temp. Windchill Dew Point Humidity Pressure Visibility Wind Dir Wind Speed Gust Speed Precip Events Conditions
12:15 AM 35.6 °F 29.9 °F 26.6 °F 70% 30.31 in 10.0 mi SSW 6.9 mph - N/A   Clear
12:35 AM 35.6 °F 30.7 °F 26.6 °F 70% 30.30 in 10.0 mi South 5.8 mph - N/A   Clear
12:55 AM 35.6 °F 30.7 °F 26.6 °F 70% 30.30 in 10.0 mi South 5.8 mph - N/A   Clear
1:15 AM 35.6 °F 30.7 °F 26.6 °F 70% 30.29 in 10.0 mi South 5.8 mph - N/A   Clear
1:35 AM 35.6 °F 29.9 °F 26.6 °F 70% 30.28 in 10.0 mi South 6.9 mph - N/A   Clear
1:55 AM 35.6 °F 29.9 °F 26.6 °F 70% 30.28 in 10.0 mi South 6.9 mph - N/A   Clear
2:15 AM 35.6 °F 30.7 °F 26.6 °F 70% 30.27 in 10.0 mi South 5.8 mph - N/A   Clear
2:35 AM 35.6 °F 30.7 °F 26.6 °F 70% 30.27 in 10.0 mi SSE 5.8 mph - N/A   Clear
2:55 AM 32.0 °F 26.4 °F 26.6 °F 80% 30.27 in 10.0 mi South 5.8 mph - N/A   Clear
3:15 AM 33.8 °F 28.6 °F 26.6 °F 75% 30.27 in 10.0 mi South 5.8 mph - N/A   Clear
3:35 AM 32.0 °F 27.5 °F 26.6 °F 80% 30.27 in 10.0 mi South 4.6 mph - N/A   Clear
3:55 AM 33.8 °F 28.6 °F 26.6 °F 75% 30.26 in 10.0 mi South 5.8 mph - N/A   Clear
4:15 AM 32.0 °F 28.7 °F 26.6 °F 80% 30.26 in 10.0 mi South 3.5 mph - N/A   Clear
4:35 AM 32.0 °F 27.5 °F 26.6 °F 80% 30.26 in 10.0 mi SSW 4.6 mph - N/A   Clear
4:55 AM 33.8 °F 29.6 °F 26.6 °F 75% 30.26 in 10.0 mi South 4.6 mph - N/A   Clear
5:15 AM 35.6 °F 30.7 °F 26.6 °F 70% 30.26 in 10.0 mi South 5.8 mph - N/A   Partly Cloudy
5:35 AM 35.6 °F 30.7 °F 26.6 °F 70% 30.26 in 10.0 mi South 5.8 mph - N/A   Mostly Cloudy
5:55 AM 35.6 °F 30.7 °F 28.4 °F 75% 30.26 in 10.0 mi South 5.8 mph - N/A   Overcast
6:15 AM 35.6 °F 30.7 °F 28.4 °F 75% 30.26 in 10.0 mi SSW 5.8 mph - N/A   Overcast
6:35 AM 37.4 °F 32.8 °F 28.4 °F 70% 30.26 in 10.0 mi SSW 5.8 mph - N/A   Overcast
6:55 AM 37.4 °F 32.8 °F 28.4 °F 70% 30.26 in 10.0 mi SSW 5.8 mph - N/A   Overcast
7:15 AM 37.4 °F 32.1 °F 28.4 °F 70% 30.25 in 10.0 mi SSW 6.9 mph - N/A   Overcast
7:35 AM 39.2 °F 35.0 °F 28.4 °F 65% 30.25 in 10.0 mi SSW 5.8 mph - N/A   Overcast
7:55 AM 39.2 °F 34.2 °F 28.4 °F 65% 30.25 in 8.0 mi SSW 6.9 mph - N/A   Overcast
8:15 AM 39.2 °F 33.6 °F 30.2 °F 70% 30.24 in 10.0 mi SSW 8.1 mph - N/A   Overcast
8:35 AM 41.0 °F 36.4 °F 30.2 °F 65% 30.24 in 10.0 mi SSW 6.9 mph - N/A   Overcast
8:55 AM 41.0 °F 36.4 °F 30.2 °F 65% 30.24 in 10.0 mi SSW 6.9 mph - N/A   Overcast
9:15 AM 42.8 °F 38.0 °F 32.0 °F 66% 30.23 in 10.0 mi SSW 8.1 mph - N/A   Overcast
9:35 AM 44.6 °F 40.7 °F 32.0 °F 61% 30.22 in 10.0 mi SSW 6.9 mph - N/A   Overcast
9:55 AM 46.4 °F 41.1 °F 32.0 °F 57% 30.22 in 10.0 mi SW 11.5 mph 17.3 mph N/A   Overcast
10:15 AM 48.2 °F - 32.0 °F 54% 30.21 in 10.0 mi SW 12.7 mph 19.6 mph N/A   Mostly Cloudy
10:35 AM 48.2 °F - 32.0 °F 54% 30.21 in 10.0 mi SW 12.7 mph 19.6 mph N/A   Overcast
10:55 AM 48.2 °F - 32.0 °F 54% 30.21 in 10.0 mi SW 15.0 mph 24.2 mph N/A   Overcast
11:15 AM 50.0 °F - 32.0 °F 50% 30.20 in 10.0 mi SSW 11.5 mph 18.4 mph N/A   Overcast
11:35 AM 50.0 °F - 32.0 °F 50% 30.19 in 10.0 mi SW 10.4 mph 18.4 mph N/A   Overcast
11:55 AM 51.8 °F - 32.0 °F 47% 30.18 in 10.0 mi WSW 16.1 mph - N/A   Overcast
12:15 PM 51.8 °F - 32.0 °F 47% 30.17 in 10.0 mi SW 15.0 mph 19.6 mph N/A   Overcast
12:35 PM 53.6 °F - 33.8 °F 47% 30.16 in 10.0 mi SW 15.0 mph 21.9 mph N/A   Overcast
12:55 PM 53.6 °F - 33.8 °F 47% 30.15 in 10.0 mi SW 13.8 mph 20.7 mph N/A   Overcast
1:15 PM 53.6 °F - 35.6 °F 51% 30.13 in 10.0 mi SW 11.5 mph - N/A   Overcast
1:35 PM 53.6 °F - 35.6 °F 51% 30.12 in 10.0 mi SW 11.5 mph 18.4 mph N/A   Mostly Cloudy
1:55 PM 53.6 °F - 35.6 °F 51% 30.12 in 10.0 mi SW 6.9 mph - N/A   Overcast
2:15 PM 53.6 °F - 35.6 °F 51% 30.11 in 10.0 mi SW 9.2 mph - N/A   Overcast
2:35 PM 55.4 °F - 37.4 °F 51% 30.11 in 10.0 mi SW 10.4 mph - N/A   Overcast
2:55 PM 55.4 °F - 37.4 °F 51% 30.10 in 10.0 mi SW 9.2 mph - N/A   Overcast
3:15 PM 55.4 °F - 37.4 °F 51% 30.08 in 10.0 mi SW 11.5 mph 17.3 mph N/A   Mostly Cloudy
3:35 PM 57.2 °F - 39.2 °F 51% 30.09 in 10.0 mi WSW 15.0 mph - N/A   Partly Cloudy
3:55 PM 59.0 °F - 39.2 °F 48% 30.08 in 10.0 mi SW 13.8 mph 18.4 mph N/A   Clear
4:15 PM 57.2 °F - 39.2 °F 51% 30.07 in 10.0 mi SSW 11.5 mph 19.6 mph N/A   Clear
4:35 PM 57.2 °F - 39.2 °F 51% 30.07 in 10.0 mi SW 11.5 mph 16.1 mph N/A   Clear
4:55 PM 57.2 °F - 39.2 °F 51% 30.07 in 10.0 mi WSW 9.2 mph - N/A   Scattered Clouds
5:15 PM 57.2 °F - 41.0 °F 55% 30.07 in 10.0 mi SW 8.1 mph - N/A   Mostly Cloudy
5:35 PM 55.4 °F - 41.0 °F 58% 30.07 in 10.0 mi SW 4.6 mph - N/A   Overcast
5:55 PM 55.4 °F - 41.0 °F 58% 30.08 in 10.0 mi SW 5.8 mph - N/A   Overcast
6:15 PM 55.4 °F - 41.0 °F 58% 30.08 in 10.0 mi SW 8.1 mph - N/A   Overcast
6:35 PM 55.4 °F - 41.0 °F 58% 30.09 in 10.0 mi SW 8.1 mph - N/A   Overcast
6:55 PM 55.4 °F - 41.0 °F 58% 30.10 in 10.0 mi WSW 8.1 mph - N/A   Overcast
7:15 PM 55.4 °F - 41.0 °F 58% 30.10 in 10.0 mi SW 6.9 mph - N/A   Overcast
7:35 PM 55.4 °F - 41.0 °F 58% 30.10 in 10.0 mi SW 6.9 mph - N/A   Overcast
7:55 PM 55.4 °F - 41.0 °F 58% 30.11 in 10.0 mi SW 5.8 mph - N/A   Overcast
8:15 PM 55.4 °F - 42.8 °F 63% 30.11 in 10.0 mi SW 4.6 mph - N/A   Overcast
8:35 PM 53.6 °F - 42.8 °F 67% 30.11 in 10.0 mi SSW 4.6 mph - N/A   Overcast
8:55 PM 53.6 °F - 42.8 °F 67% 30.11 in 10.0 mi WSW 3.5 mph - N/A   Overcast
9:15 PM 53.6 °F - 42.8 °F 67% 30.11 in 10.0 mi SW 3.5 mph - N/A   Overcast
9:35 PM 53.6 °F - 42.8 °F 67% 30.10 in 10.0 mi SSW 4.6 mph - N/A   Scattered Clouds
9:55 PM 50.0 °F - 42.8 °F 76% 30.10 in 10.0 mi SSW 4.6 mph - N/A   Scattered Clouds
10:15 PM 51.8 °F - 42.8 °F 71% 30.10 in 10.0 mi SSW 6.9 mph - N/A   Scattered Clouds
10:35 PM 51.8 °F - 42.8 °F 71% 30.10 in 10.0 mi SW 5.8 mph - N/A   Scattered Clouds
10:55 PM 50.0 °F - 42.8 °F 76% 30.09 in 10.0 mi SSW 5.8 mph - N/A   Scattered Clouds
11:15 PM 50.0 °F - 42.8 °F 76% 30.09 in 10.0 mi SSW 5.8 mph - N/A   Scattered Clouds
11:35 PM 50.0 °F - 42.8 °F 76% 30.08 in 10.0 mi SW 3.5 mph - N/A   Mostly Cloudy
11:55 PM 50.0 °F - 42.8 °F 76% 30.08 in 10.0 mi SSW 4.6 mph - N/A   Mostly Cloudy